Temp
88 93 96 89 68 72 69 74 85 82 82 91 92 88 83 83 79 66 90 94 93 88 86 86 83 84 84 83 83 84 84 83 83 84 84 84 84 84 84 84 84 84 85 85 85 84 84 84 84
96 96 89 78 69 67 66 81 77 84 88 92 87 89 83 78 87 87 89 92 91 91 89 86 82 83 83 83 83 83 84 84 84 84 84 84 84 84 84 85 84 85 85 85 85 84 84 84 84
89 82 68 67 67 72 68 78 84 87 92 90 86 89 86 80 89 90 95 94 93 91 88 84 83 83 83 83 83 83 84 84 84 84 84 84 84 84 85 84 84 85 85 85 84 84 84 84 84
90 84 76 66 66 80 78 84 88 87 91 90 89 82 89 95 90 94 98 94 91 90 87 84 83 83 83 83 83 83 83 84 84 84 84 84 84 84 84 84 84 85 85 84 84 84 84 84 84
93 83 67 69 75 84 87 90 88 84 86 88 88 80 83 92 96 97 97 94 91 89 87 85 83 83 83 83 84 83 84 84 84 84 84 84 84 84 84 84 84 84 84 84 85 85 85 84 84
83 71 69 62 78 84 87 91 88 88 88 90 86 83 83 94 94 96 99 96 97 92 88 86 83 83 83 83 83 83 84 84 84 84 84 84 84 84 84 84 84 84 84 84 85 85 85 85 85
68 65 66 76 78 80 86 92 89 90 90 88 92 80 85 91 95 98 98 93 94 93 90 87 86 84 84 84 84 84 84 84 84 84 84 84 84 84 84 84 84 84 84 84 85 85 85 85 85
70 71 75 79 75 78 91 92 96 93 89 97 96 80 80 90 97 98 99 98 98 96 94 90 87 87 86 85 83 84 84 84 84 84 84 84 84 84 84 84 84 85 85 85 85 85 85 85 84
79 70 73 74 76 84 94 89 95 98 92 95 96 91 93 95 97 96 95 96 95 96 95 93 89 85 86 85 85 83 84 84 84 85 85 85 86 86 85 86 84 85 85 85 85 85 85 84 84
71 74 75 88 86 88 92 91 91 90 89 89 92 95 95 95 94 92 92 91 92 93 95 95 95 93 91 93 84 86 87 87 86 86 83 82 87 89 93 87 85 85 85 85 85 85 85 85 88
73 69 85 89 89 95 92 91 96 90 86 90 87 89 92 93 93 93 94 94 94 95 96 98 96 93 96 91 89 90 89 91 90 87 77 80 92 89 90 84 84 83 85 81 85 84 81 89 91
77 86 93 92 96 95 90 94 91 89 90 97 94 93 93 92 93 94 95 95 95 95 96 98 96 95 93 93 92 93 93 90 90 91 90 88 86 82 87 75 76 71 71 80 86 79 88 93 91
82 93 94 96 96 94 95 91 90 90 96 98 96 94 92 93 95 97 97 98 96 94 95 94 94 89 91 90 91 90 92 92 90 91 90 88 78 79 79 89 78 76 78 79 89 88 87 89 91
89 93 94 95 93 94 90 89 91 91 97 95 93 92 94 95 96 96 96 96 94 94 94 93 92 90 92 87 91 87 89 77 90 91 91 90 89 88 89 90 79 85 83 85 90 87 87 89 90
90 89 91 92 92 91 94 85 82 93 95 91 91 92 94 95 97 95 96 94 95 95 95 91 91 92 89 89 91 90 92 95 92 91 91 92 90 88 87 88 88 89 89 91 89 89 89 88 91
89 80 68 88 92 92 84 62 80 94 92 89 91 92 93 95 96 97 97 96 95 95 90 91 95 92 89 88 89 90 93 80 88 91 90 91 93 92 87 89 86 88 89 88 82 76 83 80 87
76 64 72 79 93 85 80 61 76 91 93 89 90 91 93 93 95 96 97 97 96 94 90 90 91 91 89 88 89 90 91 86 91 93 93 89 92 94 91 89 89 89 89 87 88 86 86 84 85
60 68 72 64 87 91 84 74 83 89 93 91 91 92 92 93 94 96 97 98 97 94 92 90 92 88 87 87 87 89 90 91 92 92 94 89 92 92 90 89 88 90 87 87 86 83 85 85 84
73 76 75 84 86 89 82 83 80 75 82 93 92 92 92 93 97 97 97 98 95 94 90 89 88 89 87 87 86 86 87 90 91 92 93 88 93 92 88 89 86 84 78 82 84 83 81 81 83
80 69 74 85 84 89 86 85 84 87 90 94 93 93 93 94 95 95 95 96 94 92 89 87 88 87 88 87 86 88 88 89 88 91 90 92 91 90 91 84 82 84 82 80 81 79 78 79 80
65 69 72 80 86 87 78 79 68 79 90 96 92 96 95 95 95 94 93 93 95 90 87 87 86 87 86 86 88 88 89 88 88 88 88 89 89 89 87 86 84 84 83 80 79 76 74 73 76
69 76 73 73 80 67 73 63 62 68 78 92 94 95 95 95 96 93 94 94 94 90 92 89 87 86 87 87 86 85 85 83 83 80 83 84 84 82 84 83 81 80 79 79 78 75 74 72 70
76 79 75 75 77 82 68 70 63 63 67 69 91 94 96 96 97 97 96 95 97 96 92 91 86 86 87 85 85 86 82 77 73 73 74 76 75 76 79 80 80 79 78 78 77 77 75 75 72
92 84 84 84 82 69 66 65 64 68 69 73 90 94 96 97 98 98 96 95 94 98 95 93 86 84 85 85 82 76 73 74 70 70 71 74 74 71 71 71 71 72 74 75 75 76 73 71 72
91 86 73 66 55 59 69 59 61 64 69 81 91 94 96 97 97 96 96 96 94 97 96 92 84 79 77 75 73 73 72 71 70 69 69 70 68 66 67 66 66 68 69 69 70 71 71 71 71
83 84 74 63 68 57 64 58 68 73 77 87 93 93 93 96 99 98 97 95 93 87 83 80 76 73 73 73 72 71 70 69 68 69 67 67 66 65 65 64 64 63 64 66 66 66 68 67 68
86 81 91 80 81 76 66 71 78 73 65 81 88 89 89 87 86 84 84 80 79 77 75 74 72 71 72 71 69 69 68 67 66 66 66 65 66 65 63 62 61 61 61 61 62 62 63 64 65
89 93 78 80 64 62 74 74 67 69 67 60 66 81 82 81 82 80 75 75 74 73 73 74 72 71 69 68 68 67 68 68 68 67 65 64 63 63 61 61 60 62 63 62 62 61 65 65 65
87 84 85 85 80 69 68 75 89 75 69 69 68 75 73 74 75 72 71 72 74 74 73 71 70 69 69 68 68 67 68 68 67 66 65 64 63 63 62 62 61 63 63 64 63 64 66 68 68
93 87 87 76 73 79 77 75 91 84 75 79 75 73 71 70 69 69 68 67 68 70 70 69 69 70 71 71 69 69 69 69 67 66 65 66 64 64 63 63 63 62 63 64 65 67 68 67 67
MSLP
1007.70 1007.03 1006.38 1005.61 1006.25 1005.25 1004.84 1004.25 1003.42 1003.58 1004.07 1004.17 1004.59 1004.73 1006.17 1007.04 1007.14 1009.63 1010.62 1011.13 1012.07 1013.15 1014.13 1014.63 1014.97 1015.14 1015.39 1015.56 1015.73 1015.68 1015.78 1016.02 1016.14 1016.21 1016.23 1016.32 1016.43 1016.46 1016.52 1016.56 1016.71 1016.77 1016.83 1016.87 1016.98 1016.99 1017.04 1016.91 1016.72
1006.90 1006.22 1006.21 1005.86 1005.65 1005.11 1005.15 1004.51 1004.14 1003.94 1004.41 1004.62 1005.26 1005.46 1006.59 1007.69 1008.36 1009.39 1010.28 1011.33 1012.14 1012.83 1013.76 1014.65 1015.15 1015.35 1015.62 1015.75 1015.84 1015.89 1015.98 1016.15 1016.26 1016.38 1016.43 1016.54 1016.63 1016.70 1016.76 1016.86 1016.95 1017.00 1017.08 1017.04 1017.05 1017.12 1017.19 1017.23 1017.09
1007.60 1007.00 1007.81 1007.29 1005.97 1004.31 1004.88 1004.50 1004.19 1004.46 1004.34 1004.53 1005.42 1006.22 1006.97 1008.39 1008.91 1009.46 1010.27 1011.19 1011.96 1012.92 1014.01 1014.91 1015.28 1015.56 1015.80 1015.93 1016.01 1016.12 1016.26 1016.31 1016.43 1016.56 1016.66 1016.69 1016.81 1016.92 1017.04 1017.15 1017.16 1017.28 1017.27 1017.17 1017.18 1017.23 1017.31 1017.47 1017.40
1006.30 1006.57 1007.93 1007.62 1005.73 1003.99 1004.20 1003.93 1003.95 1003.97 1004.40 1005.33 1005.89 1006.93 1007.76 1008.11 1009.08 1009.77 1010.06 1011.33 1012.28 1013.22 1014.34 1015.04 1015.36 1015.66 1015.90 1016.05 1016.19 1016.34 1016.45 1016.50 1016.64 1016.72 1016.83 1016.96 1017.06 1017.13 1017.23 1017.27 1017.31 1017.44 1017.49 1017.48 1017.47 1017.46 1017.57 1017.66 1017.51
1004.35 1004.36 1006.41 1005.99 1004.84 1003.77 1003.45 1003.56 1003.92 1004.19 1004.76 1005.17 1006.19 1007.42 1008.03 1008.66 1009.39 1009.75 1010.17 1011.35 1012.08 1013.22 1014.27 1015.01 1015.44 1015.73 1015.97 1016.13 1016.23 1016.50 1016.57 1016.66 1016.77 1016.90 1017.03 1017.16 1017.24 1017.26 1017.28 1017.35 1017.41 1017.51 1017.54 1017.57 1017.60 1017.68 1017.71 1017.58 1017.44
1003.43 1005.56 1005.88 1005.75 1004.47 1003.82 1003.19 1003.08 1003.53 1003.60 1004.54 1004.99 1006.41 1007.43 1008.52 1009.27 1009.49 1009.89 1010.10 1010.55 1011.43 1012.70 1014.00 1014.85 1015.53 1015.76 1016.05 1016.21 1016.36 1016.53 1016.67 1016.80 1016.85 1016.96 1017.13 1017.23 1017.27 1017.29 1017.34 1017.40 1017.36 1017.38 1017.36 1017.39 1017.45 1017.61 1017.62 1017.45 1017.39
1007.77 1007.48 1006.47 1005.04 1004.05 1003.66 1002.77 1002.84 1002.62 1003.23 1003.84 1004.84 1006.17 1007.33 1008.73 1009.21 1009.86 1009.96 1010.09 1010.79 1011.57 1012.53 1013.56 1014.58 1015.31 1015.67 1016.01 1016.28 1016.45 1016.59 1016.67 1016.79 1016.85 1016.86 1016.94 1017.02 1017.06 1017.10 1017.14 1017.12 1017.17 1017.15 1017.09 1017.02 1017.05 1017.20 1017.23 1017.17 1017.06
1008.43 1009.02 1005.74 1004.22 1003.98 1003.15 1002.57 1002.52 1002.39 1002.81 1003.88 1004.99 1005.42 1007.07 1008.19 1009.11 1009.60 1010.08 1010.05 1010.43 1010.95 1011.71 1012.78 1013.93 1014.76 1015.27 1015.60 1016.21 1016.47 1016.56 1016.64 1016.70 1016.75 1016.76 1016.75 1016.65 1016.52 1016.57 1016.76 1017.01 1017.20 1017.33 1017.25 1016.95 1016.57 1016.37 1016.42 1016.60 1016.63
1007.99 1007.65 1004.79 1004.31 1003.80 1002.75 1002.41 1002.61 1003.10 1003.58 1004.24 1004.60 1005.18 1006.54 1007.82 1009.04 1009.65 1010.09 1010.39 1010.75 1011.45 1011.88 1012.79 1013.43 1014.36 1015.00 1015.32 1015.90 1016.35 1016.44 1016.41 1016.62 1016.70 1016.97 1017.06 1016.75 1016.15 1016.09 1016.53 1016.68 1017.06 1017.32 1017.26 1016.97 1016.58 1016.04 1015.64 1015.78 1015.92
1007.87 1006.36 1004.59 1003.35 1003.17 1002.29 1002.38 1002.67 1003.35 1003.90 1004.43 1005.07 1005.48 1006.84 1008.25 1009.05 1009.56 1009.92 1010.32 1010.91 1011.57 1012.02 1012.50 1012.91 1013.38 1014.31 1014.78 1015.11 1015.97 1015.91 1016.14 1016.36 1016.62 1016.68 1017.08 1016.95 1015.93 1015.42 1015.27 1016.22 1016.52 1016.62 1016.59 1016.95 1017.45 1017.24 1016.67 1015.98 1015.07
1007.33 1005.87 1004.10 1003.25 1002.66 1002.00 1002.35 1002.67 1002.74 1003.45 1004.13 1004.82 1005.83 1007.15 1008.28 1008.89 1009.30 1009.66 1009.73 1010.41 1011.08 1011.70 1012.05 1012.29 1013.33 1013.79 1014.05 1014.91 1015.24 1015.14 1015.52 1015.79 1015.94 1016.27 1017.36 1015.51 1014.81 1014.62 1014.78 1015.74 1015.92 1016.06 1016.32 1016.76 1017.69 1018.58 1017.42 1015.88 1014.40
1005.77 1004.56 1002.54 1002.60 1002.12 1002.02 1002.56 1002.83 1002.78 1003.66 1003.78 1004.69 1005.93 1007.14 1007.98 1008.57 1008.78 1009.11 1009.29 1010.04 1010.75 1011.41 1011.94 1012.38 1013.30 1013.50 1013.98 1014.26 1014.32 1014.25 1014.70 1015.35 1015.77 1015.39 1014.73 1015.11 1015.07 1015.05 1015.55 1015.58 1016.57 1016.83 1016.62 1017.14 1017.36 1017.58 1016.61 1015.39 1014.65
1004.29 1002.34 1002.35 1002.01 1002.09 1002.56 1002.86 1002.94 1003.47 1003.92 1004.01 1004.76 1006.03 1007.08 1007.69 1008.07 1008.35 1008.71 1009.20 1009.99 1010.71 1011.53 1011.89 1012.68 1013.50 1013.79 1014.05 1014.28 1014.10 1013.98 1014.06 1014.56 1015.23 1015.08 1014.61 1014.92 1015.83 1013.41 1015.03 1015.93 1015.59 1017.49 1016.95 1016.25 1016.80 1016.81 1016.29 1015.05 1014.26
1003.34 1002.28 1002.58 1002.44 1002.78 1003.06 1003.54 1004.04 1004.19 1004.62 1004.58 1005.00 1006.13 1006.97 1007.40 1007.57 1007.93 1008.53 1009.21 1009.87 1010.84 1011.54 1012.17 1013.17 1013.71 1014.12 1014.30 1014.76 1014.26 1014.45 1014.40 1015.89 1014.37 1014.46 1014.37 1013.87 1014.08 1014.27 1014.69 1014.52 1015.85 1016.31 1015.38 1015.80 1015.91 1015.47 1014.80 1014.23 1014.02
1002.93 1002.31 1002.86 1002.94 1003.12 1003.25 1003.61 1004.24 1004.82 1004.98 1005.19 1005.61 1006.23 1006.71 1007.04 1007.18 1007.66 1008.36 1009.14 1009.92 1010.67 1011.47 1012.15 1013.35 1013.93 1014.23 1014.81 1014.97 1014.63 1014.41 1014.17 1013.90 1014.21 1014.64 1014.73 1014.75 1014.71 1014.62 1014.66 1014.91 1014.82 1015.12 1015.24 1015.41 1015.18 1014.39 1013.93 1014.28 1014.36
1002.84 1004.05 1004.35 1003.37 1003.26 1003.65 1004.92 1006.48 1005.88 1005.34 1005.49 1005.85 1006.10 1006.39 1006.75 1007.03 1007.45 1008.16 1008.97 1009.88 1010.62 1011.27 1012.27 1013.20 1013.40 1014.07 1014.73 1014.93 1014.78 1014.65 1014.32 1014.70 1014.74 1014.38 1014.80 1015.00 1015.09 1015.05 1014.99 1014.93 1015.12 1014.85 1014.70 1014.75 1015.19 1015.95 1014.87 1016.30 1014.66
1005.33 1005.82 1005.14 1004.10 1002.93 1003.86 1004.86 1007.04 1006.09 1005.60 1005.08 1005.31 1005.74 1006.09 1006.40 1006.84 1007.40 1008.04 1008.83 1009.61 1010.40 1011.23 1012.23 1012.93 1013.17 1013.81 1014.38 1014.70 1014.75 1014.60 1014.49 1015.21 1014.66 1014.17 1014.21 1014.60 1014.80 1014.93 1015.12 1014.96 1014.80 1014.59 1014.75 1014.85 1015.25 1015.24 1015.33 1015.40 1015.45
1007.09 1006.66 1005.71 1005.15 1002.91 1002.67 1003.47 1005.19 1005.11 1005.06 1004.55 1004.59 1004.79 1005.33 1005.90 1006.30 1007.05 1007.83 1008.55 1009.23 1010.11 1011.10 1012.03 1012.73 1013.01 1013.47 1014.12 1014.59 1014.59 1014.56 1014.49 1014.28 1014.19 1014.02 1013.94 1014.50 1014.62 1014.84 1015.19 1015.21 1014.99 1014.65 1014.73 1015.08 1015.78 1016.07 1016.16 1016.24 1016.34
1006.29 1006.14 1005.28 1003.64 1003.20 1002.58 1003.06 1003.93 1004.47 1005.16 1004.43 1003.55 1003.67 1004.43 1005.18 1005.71 1006.26 1007.30 1008.28 1008.93 1009.80 1010.73 1011.84 1012.65 1013.18 1013.49 1013.92 1014.43 1014.64 1014.59 1014.32 1014.10 1014.09 1013.81 1013.72 1014.23 1014.47 1014.79 1015.20 1015.35 1015.80 1015.27 1015.33 1015.37 1015.67 1016.47 1016.68 1016.87 1017.06
1004.78 1005.91 1004.71 1003.63 1003.04 1002.52 1002.76 1003.07 1004.00 1004.25 1003.31 1002.76 1002.61 1003.27 1004.35 1005.03 1005.61 1006.74 1007.80 1008.54 1009.39 1010.41 1011.36 1012.34 1013.01 1013.49 1013.82 1014.22 1014.28 1014.07 1013.97 1013.64 1013.62 1013.39 1013.66 1013.77 1014.40 1014.97 1015.05 1016.04 1016.64 1015.85 1015.78 1016.12 1016.45 1017.13 1017.56 1017.65 1017.77
1005.96 1006.29 1004.90 1003.53 1002.84 1002.82 1004.02 1004.24 1005.07 1004.45 1002.30 1001.75 1002.51 1002.43 1003.42 1004.22 1004.83 1006.02 1007.10 1008.02 1008.99 1010.06 1011.05 1011.88 1012.54 1013.16 1013.64 1013.88 1014.00 1013.90 1013.98 1014.01 1014.09 1014.11 1014.27 1014.26 1014.53 1014.99 1015.45 1016.01 1016.50 1016.49 1016.47 1016.89 1017.45 1017.89 1018.20 1018.38 1018.31
1004.18 1004.64 1004.53 1004.21 1003.24 1003.79 1004.55 1006.52 1005.96 1006.61 1004.70 1001.48 1001.99 1001.90 1002.47 1003.39 1004.34 1005.22 1006.40 1007.34 1008.20 1009.40 1010.20 1011.01 1011.92 1012.64 1013.37 1013.81 1014.01 1014.00 1014.32 1014.70 1015.45 1015.74 1015.37 1014.60 1014.97 1015.19 1015.77 1016.49 1017.53 1017.55 1017.63 1017.83 1018.05 1018.29 1018.40 1018.47 1018.63
1002.59 1003.24 1003.12 1003.10 1003.06 1002.52 1006.51 1006.98 1007.66 1007.42 1005.53 1004.85 1001.82 1001.67 1001.64 1002.46 1003.60 1004.38 1005.30 1006.43 1007.17 1008.30 1009.36 1010.12 1010.97 1011.66 1012.39 1013.31 1013.79 1014.02 1014.76 1015.62 1016.57 1016.71 1016.67 1015.21 1016.50 1017.22 1017.10 1017.23 1018.04 1018.22 1018.10 1018.37 1018.53 1018.51 1018.91 1018.98 1019.13
1000.64 1001.64 1001.40 1001.25 1001.97 1003.42 1006.31 1007.37 1008.50 1008.21 1007.02 1004.84 1001.76 1000.93 1001.16 1001.78 1002.82 1003.78 1004.64 1005.63 1006.58 1007.45 1008.41 1009.31 1010.42 1011.32 1012.29 1013.06 1014.25 1015.13 1016.08 1016.55 1017.15 1016.76 1017.92 1014.99 1017.72 1018.12 1017.86 1018.04 1019.44 1019.94 1019.31 1019.23 1019.08 1019.20 1019.09 1019.25 1019.45
999.80 999.80 999.68 1001.18 1001.98 1004.34 1005.26 1006.52 1008.26 1007.78 1006.01 1003.64 1001.55 1001.09 1001.48 1001.92 1002.59 1003.47 1004.38 1005.17 1006.20 1006.80 1007.54 1008.80 1010.18 1012.06 1013.39 1014.32 1015.29 1015.79 1016.54 1017.30 1017.88 1018.28 1018.69 1018.21 1018.65 1018.57 1018.24 1017.87 1019.17 1020.57 1020.61 1020.38 1019.95 1019.80 1019.76 1019.29 1019.58
1000.37 1000.02 999.50 999.57 1000.23 1003.36 1004.98 1004.93 1006.27 1006.74 1005.25 1004.90 1002.99 1003.04 1003.06 1003.28 1003.33 1003.81 1004.49 1005.03 1006.03 1007.66 1008.78 1010.12 1011.39 1013.12 1014.34 1015.18 1015.91 1016.43 1016.83 1017.49 1017.80 1018.10 1018.28 1018.48 1018.28 1018.60 1018.78 1019.09 1019.68 1020.51 1020.81 1020.99 1020.75 1020.78 1020.58 1020.04 1019.87
999.22 998.92 998.41 998.58 999.32 1000.02 1002.67 1004.19 1004.78 1005.70 1007.34 1005.85 1005.43 1004.98 1005.02 1005.13 1005.95 1006.65 1007.01 1007.79 1008.73 1009.70 1010.99 1011.88 1012.82 1014.01 1015.04 1015.81 1016.54 1017.08 1016.92 1016.52 1017.47 1018.23 1018.40 1018.51 1019.23 1019.44 1019.80 1020.17 1020.31 1020.96 1021.59 1021.96 1021.63 1020.74 1020.86 1020.62 1020.49
998.97 998.80 998.54 998.58 999.14 999.74 999.76 1000.86 1002.48 1004.88 1008.38 1008.34 1008.47 1007.92 1007.53 1007.66 1007.61 1008.80 1009.89 1010.46 1010.99 1011.67 1012.41 1013.21 1014.14 1014.95 1015.75 1016.63 1017.24 1017.76 1017.95 1017.68 1018.28 1018.14 1018.66 1019.40 1019.91 1020.15 1020.43 1020.70 1021.19 1021.14 1021.35 1021.59 1021.34 1021.45 1021.29 1020.71 1020.92
997.59 997.74 998.09 998.23 998.76 998.92 999.18 999.06 999.49 1003.32 1006.20 1006.75 1007.35 1008.37 1009.04 1009.34 1009.81 1010.62 1011.51 1012.11 1012.17 1012.82 1013.45 1014.32 1015.05 1015.62 1016.14 1016.77 1017.20 1017.84 1018.22 1018.30 1018.50 1018.63 1019.18 1019.55 1020.34 1020.43 1020.82 1021.10 1020.69 1021.24 1021.25 1021.47 1021.53 1021.06 1021.35 1020.81 1020.97
997.29 997.53 997.55 997.70 998.24 998.45 998.90 999.75 1000.31 1002.53 1005.24 1006.42 1008.40 1009.95 1010.27 1010.86 1011.24 1011.65 1012.68 1013.05 1013.45 1013.83 1014.57 1015.36 1015.66 1015.81 1016.18 1016.45 1017.14 1017.74 1018.26 1018.41 1018.60 1018.88 1019.48 1020.01 1020.51 1020.70 1020.54 1020.71 1020.96 1021.04 1021.14 1021.33 1021.38 1021.14 1020.90 1020.88 1020.64
Wind_Speed
9 12 9 6 3 5 11 8 16 14 14 14 13 15 17 17 11 14 14 17 17 17 13 12 9 11 10 10 10 11 11 11 10 11 11 12 12 11 13 13 13 13 13 13 12 11 11 10 9
10 12 4 6 0 8 7 12 11 15 16 12 15 19 20 19 17 19 15 23 17 16 14 13 10 11 11 11 10 10 11 11 11 10 12 11 11 13 12 13 13 12 12 12 11 11 10 9 7
7 17 2 3 2 12 11 7 15 15 12 14 11 11 12 16 17 16 17 22 20 15 16 13 13 11 11 10 10 10 11 11 11 11 10 11 12 12 12 12 12 12 11 10 9 8 7 7 5
8 7 2 3 6 15 14 15 16 11 12 16 20 17 16 20 21 18 16 24 19 17 15 14 13 12 11 10 10 11 10 10 11 10 10 11 10 10 10 10 10 10 9 7 6 6 5 4 1
8 3 1 5 15 17 15 16 9 13 10 14 20 20 15 22 18 17 17 21 19 18 15 13 13 13 12 11 10 11 9 10 10 10 10 9 9 9 9 9 9 8 7 5 4 4 3 2 1
6 3 6 1 16 13 14 13 14 12 13 12 21 17 18 18 16 15 14 16 16 18 17 14 12 12 12 11 10 11 9 9 9 9 8 8 8 8 8 8 8 8 7 5 4 3 2 2 4
3 4 1 10 14 14 10 9 6 11 10 19 19 18 15 15 14 14 11 18 20 19 17 14 12 11 13 11 10 10 9 8 8 8 8 8 8 8 8 8 8 7 7 6 5 5 5 6 8
6 5 8 15 7 12 9 7 8 12 18 18 18 12 17 18 16 12 8 11 12 16 17 14 12 13 12 11 11 11 10 8 8 9 10 10 11 11 10 9 8 8 7 8 8 9 9 9 10
14 5 6 4 3 14 12 12 11 15 13 11 15 19 20 19 17 14 11 11 9 11 11 13 13 9 11 11 9 10 11 10 10 8 8 8 8 10 13 10 12 10 10 11 12 14 13 11 12
7 7 3 3 2 9 12 15 14 11 12 10 12 22 20 18 16 14 12 11 10 11 12 15 15 13 12 10 10 9 9 8 7 6 6 8 9 10 12 13 16 15 14 12 13 14 14 10 7
4 5 12 13 10 9 15 12 13 13 13 10 20 19 19 17 14 13 14 14 12 12 8 11 14 12 14 10 8 6 6 6 4 8 4 10 5 5 6 4 5 4 5 2 7 7 7 10 4
9 22 8 11 8 10 11 8 16 8 9 15 19 20 18 17 14 12 12 12 14 12 11 15 11 7 11 7 7 6 6 5 5 4 7 2 3 7 4 11 8 7 4 11 4 12 11 2 1
10 12 13 10 12 11 8 8 8 7 7 18 19 18 17 16 14 11 13 11 14 11 9 14 7 6 5 1 2 2 5 5 8 5 3 6 9 2 9 10 8 9 9 12 4 4 3 1 4
12 13 10 7 12 13 11 9 8 8 9 18 18 17 16 16 14 12 12 12 13 12 13 14 9 6 6 2 3 3 9 9 3 5 2 6 6 4 3 3 3 5 11 8 1 1 2 2 4
12 10 11 9 11 5 10 6 5 10 11 14 16 15 14 14 13 14 12 11 13 11 15 13 10 10 6 4 2 4 3 4 3 6 5 2 5 6 6 5 2 2 5 4 4 3 3 3 3
7 10 7 4 7 13 12 11 20 8 13 13 14 14 13 13 14 14 12 11 13 12 15 13 13 13 8 7 4 5 1 5 5 5 6 5 2 3 6 6 5 2 4 4 8 11 9 14 5
9 1 6 11 12 22 11 9 26 17 15 16 14 13 13 13 12 12 14 13 14 11 14 10 11 13 11 7 6 4 4 10 7 3 5 8 6 2 2 6 3 5 4 4 6 7 7 5 6
3 3 7 15 3 12 17 19 14 8 15 16 16 16 14 14 15 15 14 14 15 14 11 9 6 10 10 8 5 4 4 3 4 4 0 8 5 5 2 4 6 1 2 2 5 6 5 5 5
19 17 17 9 7 10 9 6 19 18 21 16 16 15 15 14 16 17 14 14 16 14 12 9 8 6 7 7 7 4 5 6 6 6 5 7 4 4 5 1 10 4 9 5 7 4 6 7 8
14 5 21 8 17 1 5 8 16 19 22 14 15 17 15 15 16 18 15 13 16 15 14 12 8 8 5 5 5 4 5 3 4 5 4 5 6 4 2 5 5 7 4 8 8 7 4 4 6
15 15 14 9 14 6 18 13 12 18 11 17 15 17 16 16 16 19 16 16 16 15 14 13 12 10 9 8 5 4 3 3 4 2 5 5 5 4 5 5 4 6 6 7 7 6 6 4 4
5 7 15 19 13 6 13 4 3 13 17 15 10 15 17 16 15 15 19 17 16 16 18 17 15 11 10 9 7 6 2 4 6 8 8 7 7 7 6 8 6 6 5 5 4 4 2 2 2
8 19 22 27 27 13 1 13 4 14 15 24 14 14 15 18 17 19 21 19 18 17 17 16 18 16 13 12 10 5 3 6 4 7 12 4 7 9 10 10 9 7 5 7 7 6 7 5 4
8 20 25 22 7 4 5 5 6 6 6 8 14 16 13 14 16 16 17 17 14 17 16 18 19 14 12 7 5 9 12 11 7 9 3 2 5 5 10 13 9 9 7 7 5 5 7 5 6
8 14 10 7 2 8 8 10 11 10 27 23 7 8 9 11 13 11 10 13 16 14 16 15 17 12 14 14 11 9 10 11 9 6 3 6 7 6 3 13 8 4 7 8 6 7 5 5 5
7 14 8 16 16 6 6 7 9 23 23 25 9 10 5 2 2 12 13 11 10 14 17 19 20 18 15 13 12 8 8 5 5 6 5 5 6 6 6 9 9 7 6 5 5 6 6 7 6
12 12 16 17 18 17 9 6 5 10 19 22 11 9 11 16 17 20 19 18 17 17 16 17 18 16 15 14 9 6 7 10 7 6 7 6 6 6 8 8 9 7 5 5 5 4 5 5 7
10 13 11 11 6 11 16 5 10 14 17 25 10 5 9 13 16 17 16 17 16 16 16 18 17 15 13 9 5 2 1 8 8 8 9 8 7 7 7 7 5 5 4 2 2 2 2 3 1
9 12 12 12 9 10 13 6 10 24 26 22 15 9 8 10 12 14 12 12 14 14 15 14 12 10 7 4 6 5 6 8 8 9 7 7 7 7 7 5 7 4 2 2 4 4 5 3 0
11 15 16 10 11 11 12 4 15 23 20 16 14 11 11 11 11 12 12 12 12 13 11 11 7 5 5 3 7 7 7 8 8 8 6 6 5 5 7 5 3 2 2 3 4 3 2 3 2
Wind_Direction
239 235 245 268 249 221 105 125 90 99 75 63 59 68 70 43 24 109 152 116 120 109 124 113 106 97 94 94 93 91 95 96 99 97 99 97 100 107 98 95 104 102 99 101 102 98 101 97 90
286 306 302 269 146 92 72 84 107 87 90 106 45 78 66 73 95 119 127 117 132 129 121 113 110 103 97 94 100 106 107 111 104 105 102 104 106 97 93 101 95 97 107 110 113 107 106 102 102
252 82 354 357 322 129 115 138 97 117 132 87 82 30 83 115 122 118 129 122 114 120 105 115 113 111 107 106 103 106 113 116 115 111 107 106 99 100 103 101 103 107 111 118 118 117 113 106 111
222 154 237 25 21 88 133 122 136 115 100 123 110 91 79 101 110 130 137 118 123 106 111 118 121 115 115 116 117 116 116 117 117 114 113 106 105 109 111 113 115 116 119 127 131 127 113 105 123
219 274 17 219 148 114 103 113 121 127 122 87 107 108 97 95 123 133 130 122 127 122 122 122 126 124 125 120 122 115 115 117 119 122 114 115 120 121 125 130 134 133 138 148 147 133 125 135 218
331 300 83 341 99 102 107 125 157 135 113 114 113 124 106 118 132 134 143 139 125 125 121 132 133 131 131 127 123 124 126 123 122 116 122 126 130 131 136 141 149 152 163 174 178 171 180 221 252
149 305 248 145 105 99 106 63 112 109 133 115 134 114 126 137 138 135 160 122 139 137 124 133 139 142 137 141 130 131 129 123 125 138 144 144 144 148 153 159 164 169 176 189 199 213 228 239 249
33 271 169 101 120 104 117 113 79 118 95 133 129 138 152 133 143 143 145 126 111 135 135 136 146 154 149 152 143 142 139 148 160 169 170 169 169 171 169 173 179 181 191 206 212 221 228 236 245
173 276 62 100 101 113 126 111 70 92 128 152 84 137 136 145 142 146 140 121 125 110 120 126 157 147 137 136 148 155 161 169 188 190 198 197 197 178 166 181 167 189 200 213 223 225 221 224 244
72 267 126 142 131 126 96 98 123 127 132 112 126 116 131 149 156 149 155 137 148 140 161 155 146 144 156 128 162 166 171 177 191 182 161 243 237 176 171 165 180 192 205 225 243 245 244 227 233
171 245 78 134 203 135 124 137 148 136 143 142 126 137 149 153 167 159 165 151 152 150 145 145 119 181 136 147 184 178 168 155 150 110 303 239 190 167 161 124 176 220 199 259 235 307 270 261 46
154 227 124 163 132 131 108 138 109 95 136 139 138 144 154 161 171 172 142 139 139 139 158 116 157 153 124 159 177 179 146 158 156 173 222 285 297 100 233 96 272 57 195 252 211 138 247 353 28
287 124 108 124 100 98 161 100 90 87 114 135 140 152 160 169 174 162 131 144 128 140 144 113 118 82 120 153 120 93 148 150 149 162 282 109 233 235 20 158 127 183 100 316 283 137 190 258 257
281 117 107 116 113 129 108 126 112 115 137 129 149 161 167 173 174 148 143 146 137 143 128 119 132 96 112 32 68 281 103 286 177 124 45 345 11 23 293 31 93 273 130 227 318 89 314 332 318
247 141 154 140 162 134 151 136 79 138 136 144 158 169 174 179 170 149 153 142 148 152 131 142 141 155 131 135 236 279 198 138 139 106 123 11 356 346 330 337 308 90 140 161 212 227 209 241 303
104 33 31 142 198 111 85 298 294 172 157 160 171 179 177 183 171 155 153 153 138 158 131 161 161 153 174 150 231 265 40 18 298 157 152 164 197 309 322 316 35 22 14 346 77 266 59 312 5
36 347 260 250 208 135 123 202 259 237 187 168 181 183 185 177 176 160 160 165 149 146 138 177 154 160 162 154 185 255 287 172 252 227 182 167 186 173 261 308 352 41 359 320 5 22 14 6 355
37 239 230 282 192 201 182 181 185 235 208 173 178 182 183 186 182 167 176 175 153 144 148 167 176 151 157 155 225 221 235 242 262 269 206 157 188 151 176 293 310 56 268 26 38 27 360 342 328
195 230 236 158 247 245 166 183 148 174 257 186 176 181 183 199 178 164 181 180 155 156 156 172 178 147 155 158 196 213 243 206 214 244 211 151 142 185 184 298 335 68 48 4 53 11 10 351 351
201 222 285 222 219 224 285 236 168 197 223 188 189 167 187 192 177 160 179 178 160 162 162 165 185 168 173 190 234 225 233 231 232 210 47 105 104 61 26 64 237 8 10 43 40 30 16 333 17
100 337 320 302 269 47 25 313 348 297 223 179 194 161 178 192 189 168 175 171 175 160 166 171 180 182 185 227 221 259 279 309 294 142 152 169 146 110 43 17 355 350 22 33 44 47 40 6 342
94 119 283 290 263 222 166 236 185 344 292 159 200 166 174 189 196 171 172 177 174 174 176 173 178 187 193 211 252 218 249 252 15 14 3 75 48 71 68 63 21 10 48 65 66 83 84 150 248
172 189 199 239 252 213 88 290 176 258 354 330 186 180 182 181 191 185 180 181 184 179 183 175 180 181 187 191 224 234 263 16 18 10 15 1 76 49 32 56 44 18 51 52 48 54 36 35 28
186 209 224 225 325 303 87 355 99 19 220 220 221 173 184 183 186 189 183 177 185 181 179 186 176 175 185 150 55 44 57 40 38 45 333 30 57 25 74 62 40 8 30 27 46 47 76 52 35
233 277 281 212 76 310 78 62 247 172 242 245 151 145 163 185 179 177 183 176 181 189 188 178 151 116 99 97 87 81 76 84 73 42 58 113 108 100 89 94 71 22 15 15 17 24 49 65 70
194 265 293 293 303 135 258 148 252 215 235 247 72 64 66 326 272 192 191 188 142 85 94 107 109 111 107 102 94 86 77 51 81 98 96 85 110 121 104 68 73 76 50 7 28 41 23 16 36
266 263 297 303 294 290 159 124 268 60 10 13 67 88 91 62 52 57 72 83 84 92 89 102 101 101 100 95 97 109 133 133 124 99 53 84 96 89 62 59 87 78 76 14 6 50 31 25 21
244 294 303 286 337 313 307 225 168 152 116 124 284 346 86 78 74 66 69 74 85 91 100 100 104 103 97 88 98 96 154 101 104 94 89 75 73 90 99 119 105 124 125 162 136 33 230 122 129
246 230 244 249 273 274 286 341 129 151 152 160 175 123 102 88 76 86 82 86 95 103 99 99 100 102 100 100 113 141 142 119 112 102 110 122 148 151 147 146 143 168 159 217 239 210 240 236 260
257 274 290 301 298 295 305 333 71 140 162 147 131 147 116 107 100 96 99 96 98 98 101 114 103 77 79 72 130 142 137 128 112 118 135 153 139 132 138 154 185 204 263 264 256 255 301 240 266